Location: *
(23.5860°S, 65.4036°W)
Time: 05:32:11
(UTC+00:00)

SWIFT - Pass Details

Date: 25 August 2019
Orbit: 545 x 561 km, 20.6° (Epoch: 14 September)

Event Time Altitude Azimuth Distance (km) Brightness Sun altitude
Rises 22:48:14 0° 274° (W) 2,701 8.2 -9.8°
Reaches altitude 10° 22:50:44 10° 286° (WNW) 1,808 6.5 -10.4°
Maximum altitude 22:54:21 28° 345° (NNW) 1,045 4.0 -11.2°
Drops below altitude 10° 22:57:58 10° 45° (NE) 1,808 4.6 -12.0°
Enters shadow 22:58:34 - 49° (NE) 2,011 4.8 -12.1°
